Location: Newark
(30.1000°N, 109.4667°E)
Time: 12:41:08
(UTC+00:00)

Courier 1B Rocket - Pass Details

Date: 27 February 2020
Orbit: 920 x 1202 km, 28.2° (Epoch: 05 April)

Event Time Altitude Azimuth Distance (km) Brightness Sun altitude
Rises 12:00:15 0° 208° (SSW) 3,714 8.4 -18.3°
Reaches altitude 10° 12:04:08 10° 187° (S) 2,711 7.4 -19.1°
Maximum altitude 12:07:51 16° 152° (SSE) 2,274 6.6 -20.0°
Enters shadow 12:08:23 16° 146° (SE) 2,278 6.6 -20.1°
